Flag for Jamaica Weather past 2 weeks in May Pen, Jamaica

Now
90 °F

Passing clouds.


Feels Like: 103 °F
Forecast: 75 / 90 °F
Wind: 25 mph from Southeast

Location: Kingston / Norman Manley

Current Time: Sep 1, 2014 at 1:59:19 PM

Latest Report: Sep 1, 2014 at 1:00 PM


Visibility: N/A

Pressure: 29.92 "Hg

Humidity: 67%

Dew point: 77 °F

Location of May PenLocation

Historic Weather in May Pen — Graph

°F

May Pen temperature yesterday

Maximum temperature yesterday: 90 °F (at 12:00 PM)
Minimum temperature yesterday: 81 °F (at 7:00 AM)
Average temperature yesterday: 86 °F

Past Weeks' High & Low Weather Summary

 TemperatureHumidityPressure
High93 °F (Aug 17, 2:00 PM)100% (Aug 30, 1:00 AM)30.01 "Hg (Aug 30, 1:00 AM)
Low75 °F (Aug 30, 12:00 AM)53% (Aug 28, 11:00 AM)29.71 "Hg (Aug 24, 3:00 PM)
Average85 °F74%29.89 "Hg
* Reported Aug 17 12:00 Noon — Sep 1 12:00 Noon, May Pen, Weather by CustomWeather, © 2014

Note: Actual official high and low records may vary slightly from our data, if they occured in-between our weather recording intervals... More about our weather records

Advertising

May Pen weather history for previous 24 hours

 ConditionsComfort  
Time TempWeatherWind HumidityBarometerVisibility
12:00 PM
Sep 1
90 °FPassing clouds.25 mph67%29.95 "HgN/A
11:00 AM90 °FPassing clouds.23 mph63%29.95 "HgN/A
10:00 AM90 °FPassing clouds.16 mph67%29.98 "HgN/A
9:00 AM88 °FPassing clouds.5 mph66%29.98 "HgN/A
8:00 AM84 °FPassing clouds.5 mph70%29.98 "HgN/A
7:00 AM82 °FPassing clouds.6 mph74%29.95 "HgN/A
6:00 AM81 °FPassing clouds.7 mph79%29.95 "HgN/A
5:00 AM82 °FPassing clouds.6 mph74%29.92 "HgN/A
4:00 AM82 °FPassing clouds.8 mph74%29.89 "HgN/A
3:00 AM82 °FPassing clouds.9 mph74%29.89 "HgN/A
2:00 AM82 °FPassing clouds.6 mph79%29.92 "HgN/A
1:00 AM82 °FPassing clouds.6 mph84%29.92 "HgN/A
12:00 AM82 °FPassing clouds.7 mph79%29.95 "HgN/A
11:00 PM
Aug 31
84 °FPassing clouds.3 mph74%29.95 "HgN/A
10:00 PM84 °FPassing clouds.9 mph79%29.95 "HgN/A
9:00 PM86 °FPassing clouds.10 mph70%29.95 "HgN/A
8:00 PM86 °FPassing clouds.13 mph66%29.95 "HgN/A
7:00 PM86 °FPassing clouds.16 mph66%29.92 "HgN/A
6:00 PM86 °FPartly sunny.14 mph70%29.92 "HgN/A
5:00 PM88 °FPartly sunny.21 mph70%29.92 "HgN/A
4:00 PM88 °FBroken clouds.26 mph70%29.92 "HgN/A
3:00 PM88 °FPartly sunny.18 mph70%29.92 "HgN/A
2:00 PM88 °FPartly sunny.21 mph70%29.95 "HgN/A
1:00 PM90 °FPartly sunny.20 mph71%29.98 "HgN/A
Weather by CustomWeather, © 2014

See weather overviewHow to use our weather pages